QPF
0.04 0.06 0.07 0.07 0.06 0.07 0.09 0.17 0.19 0.17 0.15 0.10 0.08 0.06 0.07 0.07 0.07 0.06 0.06 0.06 0.07 0.07 0.06 0.06 0.07 0.10 0.14 0.17 0.22 0.25 0.22 0.18 0.16 0.14 0.12 0.11 0.12 0.09 0.07 0.07 0.07 0.08 0.08
0.05 0.05 0.05 0.04 0.03 0.04 0.07 0.09 0.12 0.13 0.11 0.07 0.05 0.05 0.07 0.08 0.06 0.06 0.06 0.07 0.07 0.07 0.07 0.07 0.08 0.11 0.13 0.15 0.21 0.27 0.28 0.26 0.21 0.16 0.11 0.08 0.08 0.08 0.08 0.07 0.08 0.08 0.09
0.05 0.06 0.04 0.04 0.04 0.04 0.04 0.05 0.07 0.07 0.06 0.04 0.05 0.05 0.04 0.06 0.07 0.06 0.05 0.05 0.05 0.06 0.06 0.08 0.13 0.14 0.14 0.17 0.19 0.23 0.24 0.25 0.23 0.21 0.16 0.11 0.07 0.07 0.09 0.10 0.10 0.10 0.11
0.03 0.04 0.04 0.04 0.05 0.04 0.04 0.04 0.04 0.05 0.05 0.05 0.04 0.03 0.02 0.03 0.04 0.04 0.03 0.03 0.03 0.04 0.05 0.07 0.10 0.10 0.10 0.14 0.20 0.22 0.19 0.19 0.21 0.20 0.18 0.16 0.13 0.10 0.09 0.09 0.09 0.07 0.06
0.02 0.04 0.05 0.06 0.06 0.04 0.06 0.05 0.05 0.04 0.04 0.03 0.03 0.03 0.02 0.02 0.02 0.03 0.03 0.02 0.02 0.03 0.05 0.05 0.05 0.05 0.06 0.10 0.19 0.20 0.16 0.12 0.17 0.17 0.16 0.15 0.15 0.15 0.14 0.11 0.09 0.06 0.04
0.02 0.03 0.03 0.04 0.04 0.04 0.06 0.08 0.06 0.05 0.03 0.04 0.02 0.01 0.01 0.01 0.01 0.01 0.02 0.01 0.02 0.02 0.04 0.05 0.05 0.05 0.03 0.03 0.05 0.07 0.07 0.07 0.11 0.13 0.14 0.14 0.11 0.11 0.11 0.11 0.12 0.11 0.09
0.03 0.04 0.03 0.05 0.05 0.05 0.06 0.07 0.06 0.05 0.03 0.03 0.04 0.02 0.01 0.01 0.01 0.01 0.01 0.02 0.02 0.02 0.03 0.04 0.05 0.06 0.05 0.03 0.02 0.03 0.03 0.04 0.05 0.08 0.10 0.12 0.13 0.11 0.08 0.06 0.07 0.08 0.10
0.03 0.03 0.04 0.05 0.05 0.05 0.06 0.05 0.05 0.06 0.04 0.03 0.04 0.04 0.03 0.02 0.01 0.00 0.01 0.01 0.02 0.03 0.04 0.03 0.04 0.05 0.05 0.06 0.04 0.02 0.03 0.04 0.04 0.05 0.06 0.07 0.09 0.12 0.11 0.10 0.08 0.07 0.08
0.02 0.02 0.04 0.05 0.05 0.04 0.05 0.06 0.05 0.05 0.05 0.04 0.04 0.04 0.03 0.02 0.02 0.01 0.01 0.01 0.01 0.02 0.03 0.02 0.02 0.03 0.04 0.04 0.04 0.04 0.03 0.04 0.04 0.05 0.05 0.06 0.07 0.07 0.08 0.09 0.11 0.10 0.09
0.02 0.03 0.03 0.04 0.04 0.03 0.03 0.03 0.03 0.04 0.04 0.04 0.03 0.04 0.03 0.03 0.03 0.03 0.02 0.01 0.00 0.01 0.01 0.01 0.02 0.03 0.02 0.02 0.03 0.03 0.02 0.03 0.04 0.05 0.05 0.05 0.05 0.06 0.09 0.11 0.11 0.09 0.09
0.03 0.02 0.02 0.02 0.02 0.02 0.02 0.02 0.02 0.03 0.04 0.04 0.04 0.03 0.03 0.02 0.03 0.03 0.03 0.03 0.01 0.01 0.01 0.01 0.01 0.01 0.01 0.02 0.02 0.02 0.02 0.01 0.02 0.04 0.05 0.06 0.07 0.09 0.10 0.12 0.12 0.10 0.08
0.02 0.02 0.02 0.02 0.02 0.02 0.02 0.03 0.03 0.02 0.03 0.04 0.04 0.04 0.03 0.02 0.03 0.03 0.03 0.03 0.03 0.02 0.01 0.01 0.01 0.01 0.01 0.01 0.01 0.02 0.01 0.01 0.02 0.03 0.03 0.04 0.07 0.09 0.11 0.12 0.14 0.13 0.11
0.03 0.03 0.01 0.01 0.01 0.01 0.01 0.02 0.02 0.03 0.03 0.03 0.03 0.04 0.04 0.03 0.03 0.03 0.03 0.04 0.03 0.03 0.02 0.01 0.01 0.01 0.01 0.01 0.01 0.02 0.02 0.02 0.01 0.02 0.03 0.04 0.07 0.10 0.12 0.14 0.14 0.15 0.14
0.02 0.02 0.02 0.02 0.01 0.01 0.01 0.01 0.01 0.02 0.02 0.02 0.03 0.04 0.04 0.03 0.04 0.04 0.05 0.06 0.06 0.05 0.05 0.03 0.03 0.02 0.02 0.02 0.02 0.02 0.02 0.02 0.02 0.02 0.02 0.05 0.08 0.10 0.13 0.14 0.13 0.13 0.13
0.03 0.02 0.03 0.03 0.02 0.02 0.02 0.01 0.01 0.01 0.02 0.03 0.03 0.03 0.03 0.04 0.04 0.04 0.05 0.08 0.11 0.11 0.08 0.07 0.06 0.04 0.02 0.02 0.02 0.02 0.03 0.03 0.03 0.02 0.02 0.04 0.08 0.10 0.10 0.10 0.09 0.08 0.06
0.03 0.03 0.04 0.05 0.05 0.04 0.04 0.03 0.01 0.01 0.02 0.03 0.04 0.04 0.04 0.03 0.03 0.03 0.04 0.05 0.08 0.10 0.10 0.09 0.07 0.06 0.05 0.03 0.02 0.03 0.03 0.04 0.03 0.02 0.02 0.03 0.06 0.09 0.09 0.07 0.06 0.05 0.03
0.04 0.04 0.04 0.05 0.06 0.06 0.06 0.05 0.03 0.02 0.02 0.03 0.04 0.04 0.03 0.03 0.03 0.03 0.04 0.04 0.05 0.05 0.05 0.06 0.06 0.06 0.06 0.04 0.03 0.03 0.03 0.03 0.03 0.02 0.02 0.03 0.04 0.08 0.10 0.06 0.04 0.03 0.03
0.03 0.03 0.03 0.04 0.05 0.07 0.07 0.06 0.05 0.03 0.02 0.02 0.03 0.03 0.03 0.05 0.05 0.05 0.05 0.04 0.04 0.03 0.03 0.04 0.03 0.03 0.04 0.05 0.05 0.04 0.02 0.02 0.02 0.03 0.03 0.04 0.06 0.08 0.08 0.05 0.03 0.02 0.02
0.01 0.01 0.01 0.01 0.01 0.03 0.04 0.06 0.06 0.05 0.03 0.03 0.04 0.04 0.04 0.05 0.06 0.05 0.05 0.04 0.04 0.03 0.04 0.03 0.03 0.03 0.03 0.03 0.04 0.04 0.03 0.03 0.02 0.02 0.03 0.04 0.07 0.08 0.07 0.04 0.02 0.02 0.01
0.01 0.01 0.01 0.01 0.01 0.01 0.02 0.02 0.02 0.03 0.03 0.03 0.04 0.04 0.03 0.04 0.05 0.06 0.05 0.05 0.05 0.04 0.04 0.03 0.02 0.02 0.03 0.03 0.03 0.04 0.04 0.03 0.03 0.02 0.03 0.05 0.07 0.08 0.07 0.04 0.03 0.02 0.01
0.01 0.01 0.01 0.01 0.01 0.01 0.01 0.01 0.02 0.02 0.02 0.03 0.03 0.02 0.02 0.02 0.03 0.03 0.03 0.03 0.04 0.04 0.04 0.03 0.03 0.03 0.03 0.03 0.03 0.03 0.04 0.04 0.04 0.04 0.04 0.07 0.09 0.08 0.05 0.04 0.02 0.02 0.03
0.01 0.01 0.01 0.01 0.01 0.01 0.02 0.02 0.02 0.02 0.02 0.02 0.02 0.02 0.01 0.01 0.02 0.02 0.02 0.02 0.02 0.03 0.03 0.03 0.03 0.03 0.03 0.03 0.04 0.03 0.04 0.05 0.05 0.04 0.04 0.06 0.07 0.05 0.03 0.02 0.02 0.02 0.02
0.02 0.02 0.02 0.03 0.04 0.05 0.03 0.03 0.03 0.02 0.01 0.01 0.02 0.02 0.01 0.01 0.01 0.02 0.02 0.01 0.01 0.01 0.02 0.03 0.03 0.02 0.03 0.04 0.05 0.05 0.05 0.04 0.04 0.03 0.03 0.04 0.05 0.04 0.02 0.02 0.04 0.04 0.02
0.02 0.03 0.04 0.06 0.06 0.06 0.06 0.04 0.03 0.02 0.02 0.03 0.02 0.02 0.02 0.02 0.02 0.02 0.02 0.01 0.01 0.01 0.02 0.02 0.02 0.02 0.02 0.04 0.06 0.05 0.06 0.06 0.06 0.05 0.04 0.03 0.04 0.04 0.04 0.03 0.02 0.02 0.02
0.02 0.02 0.03 0.04 0.05 0.06 0.06 0.04 0.04 0.04 0.04 0.04 0.03 0.03 0.02 0.02 0.02 0.02 0.02 0.01 0.01 0.01 0.01 0.01 0.01 0.01 0.01 0.02 0.04 0.04 0.05 0.06 0.07 0.07 0.05 0.04 0.03 0.04 0.03 0.03 0.03 0.03 0.04
0.02 0.03 0.03 0.03 0.03 0.03 0.04 0.03 0.03 0.04 0.05 0.05 0.04 0.03 0.02 0.02 0.01 0.01 0.01 0.01 0.01 0.01 0.01 0.02 0.02 0.02 0.02 0.02 0.03 0.04 0.04 0.05 0.05 0.04 0.02 0.01 0.01 0.02 0.04 0.05 0.05 0.04 0.03
MSLP
1014.49 1014.93 1015.37 1015.83 1016.29 1016.76 1017.22 1017.63 1017.97 1018.22 1018.35 1018.40 1018.38 1018.34 1018.34 1018.40 1018.56 1018.83 1019.16 1019.54 1019.91 1020.23 1020.47 1020.62 1020.67 1020.66 1020.60 1020.53 1020.47 1020.42 1020.40 1020.39 1020.38 1020.37 1020.35 1020.32 1020.29 1020.25 1020.20 1020.14 1020.07 1019.99 1019.89
1014.74 1015.20 1015.65 1016.12 1016.59 1017.06 1017.51 1017.92 1018.26 1018.51 1018.65 1018.70 1018.68 1018.62 1018.59 1018.60 1018.68 1018.85 1019.09 1019.37 1019.66 1019.91 1020.12 1020.25 1020.32 1020.33 1020.30 1020.25 1020.21 1020.16 1020.11 1020.07 1020.03 1019.98 1019.93 1019.87 1019.82 1019.77 1019.72 1019.66 1019.60 1019.52 1019.43
1015.01 1015.46 1015.93 1016.39 1016.87 1017.34 1017.80 1018.21 1018.56 1018.81 1018.96 1019.01 1018.98 1018.90 1018.81 1018.75 1018.74 1018.79 1018.90 1019.06 1019.24 1019.41 1019.56 1019.68 1019.76 1019.80 1019.81 1019.80 1019.78 1019.75 1019.70 1019.64 1019.57 1019.49 1019.40 1019.31 1019.23 1019.17 1019.12 1019.07 1019.02 1018.95 1018.87
1015.29 1015.74 1016.20 1016.66 1017.14 1017.61 1018.06 1018.47 1018.81 1019.06 1019.21 1019.25 1019.21 1019.10 1018.96 1018.82 1018.71 1018.64 1018.62 1018.64 1018.70 1018.78 1018.86 1018.94 1019.02 1019.09 1019.14 1019.18 1019.19 1019.19 1019.15 1019.09 1018.99 1018.88 1018.76 1018.64 1018.54 1018.46 1018.40 1018.35 1018.32 1018.27 1018.21
1015.59 1016.03 1016.47 1016.93 1017.38 1017.83 1018.27 1018.65 1018.98 1019.21 1019.35 1019.38 1019.32 1019.19 1019.01 1018.81 1018.61 1018.44 1018.29 1018.19 1018.12 1018.09 1018.10 1018.13 1018.18 1018.26 1018.33 1018.41 1018.46 1018.49 1018.47 1018.42 1018.31 1018.18 1018.04 1017.89 1017.76 1017.66 1017.58 1017.53 1017.50 1017.47 1017.42
1015.90 1016.32 1016.74 1017.17 1017.60 1018.02 1018.41 1018.76 1019.05 1019.25 1019.37 1019.39 1019.33 1019.19 1018.99 1018.76 1018.51 1018.25 1018.01 1017.79 1017.61 1017.47 1017.38 1017.34 1017.34 1017.40 1017.47 1017.57 1017.65 1017.70 1017.71 1017.67 1017.58 1017.44 1017.28 1017.11 1016.95 1016.82 1016.72 1016.65 1016.61 1016.57 1016.54
1016.22 1016.62 1017.01 1017.40 1017.79 1018.16 1018.51 1018.81 1019.05 1019.22 1019.31 1019.33 1019.27 1019.14 1018.96 1018.72 1018.45 1018.16 1017.85 1017.55 1017.26 1017.01 1016.81 1016.67 1016.61 1016.60 1016.65 1016.74 1016.83 1016.90 1016.94 1016.92 1016.84 1016.71 1016.54 1016.35 1016.16 1016.00 1015.86 1015.75 1015.68 1015.62 1015.58
1016.54 1016.90 1017.27 1017.63 1017.98 1018.30 1018.59 1018.84 1019.03 1019.16 1019.24 1019.25 1019.21 1019.11 1018.96 1018.76 1018.51 1018.21 1017.86 1017.50 1017.12 1016.77 1016.45 1016.20 1016.03 1015.95 1015.94 1015.99 1016.07 1016.15 1016.20 1016.21 1016.15 1016.03 1015.87 1015.66 1015.45 1015.24 1015.05 1014.90 1014.77 1014.67 1014.59
1016.84 1017.18 1017.52 1017.86 1018.17 1018.46 1018.71 1018.91 1019.06 1019.16 1019.21 1019.23 1019.21 1019.15 1019.05 1018.90 1018.68 1018.40 1018.04 1017.64 1017.19 1016.74 1016.31 1015.94 1015.65 1015.47 1015.37 1015.36 1015.41 1015.49 1015.55 1015.58 1015.54 1015.44 1015.28 1015.07 1014.83 1014.58 1014.34 1014.11 1013.92 1013.75 1013.61
1017.10 1017.43 1017.76 1018.08 1018.39 1018.65 1018.87 1019.04 1019.16 1019.24 1019.28 1019.29 1019.29 1019.26 1019.21 1019.10 1018.93 1018.67 1018.32 1017.89 1017.39 1016.85 1016.32 1015.83 1015.43 1015.13 1014.95 1014.87 1014.87 1014.92 1014.98 1015.02 1015.01 1014.93 1014.77 1014.56 1014.30 1014.01 1013.70 1013.41 1013.14 1012.90 1012.69
1017.32 1017.64 1017.97 1018.30 1018.60 1018.87 1019.09 1019.24 1019.33 1019.38 1019.41 1019.41 1019.41 1019.40 1019.37 1019.29 1019.15 1018.92 1018.58 1018.13 1017.59 1017.00 1016.39 1015.80 1015.30 1014.90 1014.62 1014.47 1014.42 1014.43 1014.48 1014.52 1014.51 1014.44 1014.29 1014.08 1013.80 1013.47 1013.13 1012.77 1012.43 1012.12 1011.83
1017.47 1017.79 1018.13 1018.47 1018.80 1019.08 1019.30 1019.45 1019.53 1019.56 1019.55 1019.53 1019.51 1019.49 1019.45 1019.39 1019.26 1019.04 1018.70 1018.26 1017.70 1017.07 1016.41 1015.76 1015.18 1014.71 1014.36 1014.14 1014.03 1014.00 1014.02 1014.03 1014.02 1013.94 1013.79 1013.57 1013.28 1012.94 1012.56 1012.17 1011.78 1011.41 1011.06
1017.54 1017.86 1018.22 1018.58 1018.93 1019.24 1019.47 1019.62 1019.69 1019.69 1019.64 1019.57 1019.51 1019.45 1019.39 1019.30 1019.17 1018.95 1018.62 1018.18 1017.64 1017.01 1016.33 1015.66 1015.05 1014.53 1014.13 1013.85 1013.68 1013.60 1013.57 1013.55 1013.51 1013.41 1013.24 1013.01 1012.71 1012.36 1011.97 1011.57 1011.16 1010.76 1010.38
1017.53 1017.85 1018.21 1018.60 1018.97 1019.30 1019.54 1019.69 1019.74 1019.70 1019.61 1019.49 1019.36 1019.24 1019.13 1019.01 1018.85 1018.63 1018.32 1017.91 1017.39 1016.79 1016.15 1015.50 1014.89 1014.36 1013.93 1013.62 1013.40 1013.26 1013.16 1013.08 1012.98 1012.84 1012.64 1012.38 1012.07 1011.73 1011.35 1010.96 1010.57 1010.17 1009.79
1017.45 1017.76 1018.13 1018.52 1018.91 1019.24 1019.48 1019.62 1019.64 1019.57 1019.43 1019.24 1019.05 1018.87 1018.70 1018.54 1018.36 1018.14 1017.85 1017.48 1017.01 1016.48 1015.90 1015.31 1014.74 1014.23 1013.80 1013.46 1013.20 1012.99 1012.82 1012.65 1012.47 1012.26 1012.00 1011.71 1011.39 1011.05 1010.70 1010.34 1009.99 1009.63 1009.27
1017.32 1017.62 1017.98 1018.37 1018.75 1019.07 1019.30 1019.42 1019.42 1019.30 1019.11 1018.87 1018.62 1018.38 1018.17 1017.97 1017.78 1017.57 1017.31 1016.99 1016.60 1016.15 1015.66 1015.15 1014.65 1014.18 1013.77 1013.41 1013.11 1012.83 1012.57 1012.31 1012.03 1011.73 1011.40 1011.05 1010.71 1010.36 1010.04 1009.72 1009.42 1009.12 1008.82
1017.19 1017.47 1017.81 1018.17 1018.52 1018.82 1019.03 1019.12 1019.09 1018.94 1018.71 1018.44 1018.15 1017.87 1017.63 1017.42 1017.23 1017.03 1016.82 1016.56 1016.25 1015.89 1015.50 1015.07 1014.65 1014.24 1013.85 1013.49 1013.14 1012.80 1012.46 1012.09 1011.70 1011.30 1010.88 1010.46 1010.07 1009.71 1009.40 1009.12 1008.87 1008.63 1008.38
1017.08 1017.33 1017.64 1017.97 1018.29 1018.55 1018.72 1018.78 1018.73 1018.56 1018.31 1018.02 1017.71 1017.43 1017.17 1016.97 1016.79 1016.62 1016.45 1016.25 1016.02 1015.74 1015.43 1015.09 1014.73 1014.37 1014.01 1013.65 1013.27 1012.88 1012.45 1011.99 1011.50 1010.98 1010.47 1009.97 1009.52 1009.13 1008.80 1008.53 1008.31 1008.12 1007.92
1017.00 1017.24 1017.51 1017.80 1018.08 1018.30 1018.43 1018.47 1018.39 1018.21 1017.96 1017.67 1017.37 1017.09 1016.85 1016.66 1016.50 1016.37 1016.23 1016.08 1015.90 1015.68 1015.43 1015.15 1014.84 1014.52 1014.18 1013.82 1013.43 1012.99 1012.51 1011.97 1011.39 1010.78 1010.17 1009.59 1009.06 1008.61 1008.24 1007.96 1007.74 1007.56 1007.38
1016.96 1017.18 1017.43 1017.68 1017.91 1018.09 1018.19 1018.20 1018.11 1017.93 1017.68 1017.41 1017.13 1016.88 1016.67 1016.49 1016.35 1016.23 1016.12 1015.99 1015.83 1015.64 1015.42 1015.17 1014.90 1014.60 1014.28 1013.93 1013.53 1013.07 1012.55 1011.96 1011.32 1010.64 1009.95 1009.29 1008.68 1008.16 1007.72 1007.39 1007.13 1006.92 1006.73
1016.94 1017.15 1017.37 1017.60 1017.79 1017.94 1018.01 1018.00 1017.90 1017.72 1017.49 1017.24 1016.99 1016.76 1016.57 1016.41 1016.28 1016.16 1016.04 1015.90 1015.74 1015.54 1015.32 1015.08 1014.81 1014.53 1014.22 1013.88 1013.49 1013.03 1012.51 1011.91 1011.24 1010.52 1009.78 1009.05 1008.36 1007.75 1007.23 1006.81 1006.48 1006.21 1005.97
1016.90 1017.11 1017.32 1017.53 1017.70 1017.82 1017.87 1017.84 1017.74 1017.57 1017.36 1017.12 1016.89 1016.68 1016.50 1016.34 1016.20 1016.07 1015.92 1015.75 1015.56 1015.33 1015.08 1014.82 1014.54 1014.26 1013.96 1013.63 1013.26 1012.84 1012.34 1011.76 1011.10 1010.37 1009.60 1008.83 1008.08 1007.39 1006.77 1006.25 1005.81 1005.45 1005.13
1016.82 1017.04 1017.25 1017.45 1017.61 1017.72 1017.76 1017.72 1017.61 1017.45 1017.24 1017.02 1016.80 1016.60 1016.41 1016.24 1016.08 1015.91 1015.72 1015.51 1015.26 1014.99 1014.70 1014.40 1014.11 1013.81 1013.52 1013.21 1012.88 1012.50 1012.04 1011.51 1010.89 1010.18 1009.42 1008.63 1007.83 1007.07 1006.37 1005.74 1005.19 1004.72 1004.30
1016.69 1016.93 1017.15 1017.35 1017.51 1017.61 1017.65 1017.61 1017.50 1017.34 1017.14 1016.92 1016.70 1016.48 1016.28 1016.09 1015.89 1015.68 1015.44 1015.18 1014.88 1014.57 1014.23 1013.90 1013.58 1013.28 1012.99 1012.70 1012.40 1012.07 1011.67 1011.20 1010.63 1009.98 1009.25 1008.46 1007.65 1006.84 1006.06 1005.34 1004.69 1004.10 1003.57
1016.54 1016.79 1017.02 1017.23 1017.40 1017.50 1017.54 1017.50 1017.40 1017.24 1017.04 1016.81 1016.58 1016.35 1016.13 1015.90 1015.67 1015.42 1015.14 1014.84 1014.50 1014.15 1013.78 1013.43 1013.09 1012.77 1012.49 1012.22 1011.95 1011.65 1011.31 1010.90 1010.39 1009.80 1009.11 1008.35 1007.54 1006.72 1005.89 1005.10 1004.36 1003.68 1003.04
1016.38 1016.64 1016.89 1017.11 1017.28 1017.40 1017.45 1017.42 1017.32 1017.17 1016.96 1016.73 1016.49 1016.24 1015.99 1015.73 1015.47 1015.20 1014.89 1014.57 1014.21 1013.84 1013.46 1013.09 1012.74 1012.42 1012.13 1011.87 1011.61 1011.34 1011.04 1010.67 1010.22 1009.68 1009.05 1008.33 1007.55 1006.73 1005.89 1005.06 1004.26 1003.50 1002.78
Thickness
5786 5787 5785 5784 5784 5784 5783 5782 5781 5780 5778 5778 5778 5778 5777 5776 5775 5774 5772 5769 5766 5765 5764 5763 5762 5761 5759 5758 5755 5753 5751 5749 5748 5746 5744 5743 5741 5740 5738 5738 5736 5735 5733
5785 5785 5783 5783 5784 5783 5783 5781 5781 5780 5779 5778 5778 5777 5777 5776 5775 5774 5773 5771 5768 5766 5764 5763 5762 5761 5759 5758 5756 5754 5752 5750 5748 5746 5745 5743 5741 5740 5738 5737 5736 5735 5733
5783 5783 5783 5783 5783 5782 5781 5781 5780 5780 5779 5779 5778 5777 5777 5776 5776 5774 5773 5771 5771 5768 5765 5764 5762 5761 5759 5758 5757 5755 5753 5751 5749 5747 5745 5743 5742 5740 5738 5737 5736 5734 5733
5782 5782 5782 5782 5781 5782 5782 5780 5779 5778 5777 5777 5777 5777 5778 5776 5775 5774 5773 5771 5770 5770 5767 5765 5762 5761 5759 5758 5757 5755 5753 5751 5749 5747 5746 5744 5742 5740 5738 5737 5735 5734 5733
5781 5781 5781 5780 5780 5781 5781 5780 5778 5777 5775 5775 5776 5776 5777 5776 5775 5774 5773 5772 5770 5768 5768 5765 5763 5761 5759 5758 5757 5755 5752 5751 5749 5747 5745 5743 5742 5740 5738 5737 5735 5734 5732
5781 5780 5780 5779 5780 5780 5778 5777 5775 5774 5774 5774 5776 5776 5777 5776 5776 5774 5773 5773 5770 5768 5768 5767 5765 5764 5760 5758 5756 5754 5752 5750 5748 5747 5745 5743 5741 5740 5738 5736 5734 5733 5731
5781 5779 5780 5778 5778 5778 5776 5777 5775 5773 5773 5773 5772 5772 5776 5777 5775 5773 5772 5771 5770 5768 5767 5765 5764 5763 5761 5757 5754 5752 5750 5748 5747 5745 5744 5743 5741 5740 5738 5736 5734 5733 5731
5780 5781 5778 5778 5777 5775 5774 5773 5771 5771 5772 5772 5768 5767 5767 5769 5770 5773 5770 5769 5768 5767 5766 5765 5762 5760 5759 5757 5754 5750 5748 5746 5745 5743 5742 5741 5740 5739 5737 5736 5734 5732 5731
5780 5778 5777 5777 5776 5776 5775 5772 5770 5768 5768 5769 5769 5764 5760 5759 5763 5768 5767 5766 5764 5763 5763 5762 5760 5758 5756 5755 5752 5748 5745 5743 5742 5741 5740 5739 5737 5736 5735 5734 5733 5731 5730
5779 5778 5777 5777 5776 5776 5773 5772 5771 5769 5766 5765 5766 5764 5762 5760 5755 5756 5762 5763 5762 5760 5759 5759 5758 5756 5753 5752 5748 5745 5742 5740 5739 5738 5737 5736 5735 5734 5733 5732 5731 5730 5729
5779 5778 5777 5776 5775 5775 5773 5770 5768 5767 5766 5764 5762 5761 5759 5758 5757 5752 5750 5753 5757 5758 5757 5755 5754 5753 5751 5749 5746 5743 5739 5737 5735 5734 5733 5732 5731 5731 5730 5729 5729 5728 5727
5779 5777 5776 5774 5773 5772 5770 5768 5766 5765 5763 5761 5760 5759 5757 5754 5752 5750 5747 5747 5749 5752 5753 5751 5750 5748 5747 5746 5743 5739 5736 5733 5732 5730 5729 5728 5727 5727 5726 5725 5725 5725 5725
5778 5775 5775 5772 5771 5769 5767 5766 5764 5763 5761 5758 5757 5757 5756 5754 5752 5749 5745 5744 5744 5747 5747 5747 5746 5744 5743 5741 5739 5734 5732 5730 5728 5726 5725 5724 5723 5722 5721 5721 5721 5721 5721
5777 5774 5772 5770 5768 5766 5765 5763 5763 5761 5759 5756 5755 5752 5751 5751 5750 5747 5743 5739 5737 5740 5740 5740 5742 5740 5738 5736 5733 5729 5730 5726 5724 5722 5721 5720 5719 5718 5717 5716 5717 5716 5716
5776 5772 5770 5768 5766 5764 5762 5760 5759 5757 5755 5753 5752 5750 5748 5747 5745 5744 5741 5737 5732 5729 5731 5734 5733 5735 5732 5730 5727 5725 5724 5722 5719 5717 5716 5715 5715 5714 5713 5712 5711 5711 5711
5771 5769 5767 5765 5763 5761 5760 5757 5757 5754 5751 5749 5746 5743 5742 5742 5740 5739 5737 5735 5732 5728 5725 5728 5727 5729 5726 5724 5722 5720 5719 5717 5715 5713 5711 5710 5709 5709 5708 5707 5706 5705 5705
5767 5765 5763 5761 5759 5758 5756 5754 5753 5751 5747 5745 5743 5740 5737 5736 5734 5734 5732 5730 5728 5726 5721 5722 5723 5723 5718 5715 5715 5715 5714 5714 5713 5709 5706 5705 5704 5703 5702 5701 5700 5700 5699
5764 5762 5760 5758 5756 5754 5752 5750 5747 5746 5743 5740 5738 5735 5733 5732 5728 5727 5725 5724 5722 5720 5716 5712 5714 5714 5711 5710 5709 5708 5710 5710 5708 5705 5702 5700 5699 5697 5696 5695 5694 5694 5693
5760 5758 5755 5753 5751 5750 5747 5745 5743 5742 5739 5737 5734 5730 5728 5725 5722 5721 5718 5717 5716 5716 5711 5708 5708 5708 5707 5706 5704 5704 5704 5702 5703 5702 5699 5696 5694 5692 5690 5689 5688 5688 5687
5756 5753 5751 5748 5747 5745 5743 5741 5739 5737 5734 5732 5729 5726 5723 5720 5716 5714 5712 5709 5709 5707 5705 5703 5702 5702 5700 5700 5697 5696 5696 5697 5696 5697 5695 5693 5690 5687 5686 5684 5683 5681 5680
5752 5748 5745 5743 5741 5739 5737 5734 5732 5731 5728 5725 5723 5721 5718 5715 5711 5707 5706 5704 5702 5700 5699 5697 5695 5694 5693 5690 5689 5690 5689 5689 5690 5691 5689 5688 5687 5685 5682 5680 5678 5675 5674
5745 5742 5739 5737 5735 5734 5730 5725 5723 5723 5721 5718 5716 5715 5713 5710 5706 5701 5697 5695 5692 5691 5690 5688 5687 5684 5682 5683 5682 5681 5680 5680 5679 5683 5680 5679 5679 5677 5677 5676 5673 5670 5668
5738 5735 5733 5731 5729 5726 5721 5718 5715 5715 5714 5712 5710 5708 5708 5707 5701 5698 5693 5689 5686 5683 5680 5679 5678 5676 5675 5676 5674 5673 5671 5670 5670 5673 5672 5671 5672 5670 5671 5670 5666 5664 5662
5731 5728 5726 5724 5721 5719 5714 5710 5708 5708 5707 5704 5703 5701 5698 5696 5695 5690 5687 5685 5683 5681 5678 5674 5673 5671 5670 5667 5665 5664 5664 5663 5665 5666 5665 5662 5664 5664 5666 5664 5661 5658 5656
5724 5722 5721 5717 5714 5711 5706 5703 5699 5702 5700 5698 5696 5694 5692 5689 5683 5679 5678 5677 5675 5675 5673 5669 5665 5663 5660 5657 5655 5656 5657 5656 5657 5659 5658 5655 5656 5657 5658 5658 5657 5653 5651
5717 5715 5713 5711 5708 5705 5699 5695 5691 5696 5694 5692 5690 5688 5682 5678 5673 5669 5670 5668 5666 5666 5665 5663 5659 5657 5655 5653 5650 5648 5649 5649 5650 5650 5651 5648 5648 5648 5648 5651 5650 5649 5646